Regional Weather Roundup
Issued by NWS Jackson, KY

Home | Current Version | Previous Version | Text Only | Print | Product List | Glossary Off
Versions: 1 2 3 4 5 6 7 8 9 10 11 12 13 14 15 16 17 18 19 20 21 22 23 24 25 26 27 28 29 30 31 32 33 34 35 36 37 38 39 40 41 42 43 44 45 46 47 48 49 50

000
ASUS43 KJKL 051210
RWRJKL

EAST KENTUCKY HOURLY WEATHER ROUNDUP
NATIONAL WEATHER SERVICE JACKSON KY
800 AM EDT SUN JUL 05 2015

NOTE: "FAIR" INDICATES FEW OR NO CLOUDS BELOW 12,000 FEET WITH
NO SIGNIFICANT WEATHER AND/OR OBSTRUCTIONS TO VISIBILITY.

* THESE REPORTS ARE NOT UNDER NWS QUALITY CONTROL AND MAY NOT
  REPORT WEATHER SUCH AS PRECIPITATION AND FOG.

KYZ079-080-083-085-087-088-110-112-115-119-120-051300
...EASTERN KENTUCKY...

CITY           SKY/WX    TMP DP  RH WIND       PRES   REMARKS
JACKSON        LGT RAIN  69  67  93 CALM      30.11R FOG
6HR MIN TEMP:  68; 6HR MAX TEMP:  70; 6HR PCP:  0.17;

LONDON         LGT RAIN  68  64  87 NE3       30.09R
6HR MIN TEMP:  67; 6HR MAX TEMP:  71; 6HR PCP:  0.57;

SOMERSET*      CLOUDY    64  64 100 CALM      30.08S
MONTICELLO*    CLOUDY    69  69 100 CALM      30.10R
6HR MIN TEMP:  68; 6HR MAX TEMP:  69;

MIDDLESBORO*   DRIZZLE   67  67 100 CALM      30.09S
6HR MIN TEMP:  67; 6HR MAX TEMP:  69; 6HR PCP:  0.59;

HARLAN APT*      N/A     66  66 100 CALM      30.10S VSB 3/4
BLACK MTN*       N/A     59  59 100 CALM        N/A
PIKEVILLE APT* DRIZZLE   66  64  94 CALM      30.11S
BIG SANDY*     FOG       68  68 100 CALM      30.11R VSB 1/2
6HR MIN TEMP:  66; 6HR MAX TEMP:  68;

MOREHEAD APT*  CLOUDY    68  55  64 E6        30.12R
$$

KYZ035-036-041-042-044-050-067-078-099-051300
...CENTRAL KENTUCKY...

CITY           SKY/WX    TMP DP  RH WIND       PRES   REMARKS
MT STERLING*   CLOUDY    66  61  82 E5        30.11R
FLEMING/MASON* SUNNY     64  61  88 NE6       30.12R
DANVILLE*      LGT RAIN  68  68 100 CALM      30.10R
RICHMOND*      CLOUDY    66  64  94 CALM      30.09R
LEXINGTON      CLOUDY    70  64  81 NE7       30.09R
6HR MIN TEMP:  68; 6HR MAX TEMP:  72;

FRANKFORT      CLOUDY    69  65  86 NE3       30.08R FOG
6HR MIN TEMP:  68; 6HR MAX TEMP:  71;

$$

KYZ091>093-OHZ055-061-077-WVZ005-015-034-035-042-051300
...SOUTHERN OHIO/WEST VIRGINIA...

CITY           SKY/WX    TMP DP  RH WIND       PRES   REMARKS
COVINGTON      CLOUDY    69  59  70 NE5       30.11R
COLUMBUS       PTSUNNY   64  56  75 N3        30.13R
DAYTON         PTSUNNY   65  61  87 CALM      30.15R FOG
WILMINGTON     PTSUNNY   63  58  83 CALM      30.13R
HUNTINGTON     CLOUDY    65  64  97 CALM      30.09R FOG
CHARLESTON     FOG       66  64  93 NE3       30.11R VSB 1/2
PINEVILLE*     CLOUDY    67  67 100 MISG      30.19R
BECKLEY        CLOUDY    65  62  90 CALM      30.18R
BLUEFIELD      LGT RAIN  68  62  81 CALM      30.19R
$$

VAZ002-007-008-TNZ017-027-036-066-071-051300
...SOUTHWEST VIRGINIA/EAST TENNESSEE...

CITY           SKY/WX    TMP DP  RH WIND       PRES   REMARKS
WISE*          RAIN      64  64 100 CALM      30.16S
JONESVILLE*      N/A    N/A N/A N/A MISG        N/A
ABINGDON*      CLOUDY    68  68 100 E6        30.14S
BRISTOL        CLOUDY    69  68  96 CALM      30.11R FOG
KNOXVILLE      CLOUDY    69  67  93 SE6       30.06R
OAK RIDGE      LGT RAIN  69  67  93 SE5       30.06F FOG
CROSSVILLE     PTSUNNY   68  64  87 W5        30.09R
NASHVILLE      LGT RAIN  70  70 100 W5        30.08R FOG
$$

...KEY TO REMARKS...
VSB - VISIBILITY IN MILES
WCI - WIND CHILL INDEX
HX  - HEAT INDEX

$$



USA.gov is the U.S. government's official web portal to all federal, state and local government web resources and services.